TimeMST,TemperatureF,Dew PointF,Humidity,Sea Level PressureIn,VisibilityMPH,Wind Direction,Wind SpeedMPH,Gust SpeedMPH,PrecipitationIn,Events,Conditions,WindDirDegrees,DateUTC
12:53 AM,10.0,6.1,84,30.23,10.0,North,4.6,-,N/A,,Clear,10,2013-02-19 07:53:00
1:53 AM,10.0,6.1,84,30.23,10.0,Calm,Calm,-,N/A,,Clear,0,2013-02-19 08:53:00
2:53 AM,8.1,3.9,83,30.23,10.0,Calm,Calm,-,N/A,,Clear,0,2013-02-19 09:53:00
3:53 AM,6.1,1.9,83,30.23,10.0,Calm,Calm,-,N/A,,Clear,0,2013-02-19 10:53:00
4:53 AM,7.0,3.0,84,30.23,10.0,NE,4.6,-,N/A,,Clear,50,2013-02-19 11:53:00
5:53 AM,9.0,6.1,88,30.25,10.0,East,4.6,-,N/A,,Clear,80,2013-02-19 12:53:00
6:53 AM,7.0,3.0,84,30.26,10.0,SSE,4.6,-,N/A,,Clear,160,2013-02-19 13:53:00
7:53 AM,14.0,10.0,84,30.24,10.0,ESE,8.1,-,N/A,,Clear,120,2013-02-19 14:53:00
8:53 AM,19.9,15.1,81,30.24,10.0,ESE,13.8,-,N/A,,Clear,120,2013-02-19 15:53:00
9:53 AM,26.1,18.0,71,30.20,10.0,ESE,13.8,-,N/A,,Clear,110,2013-02-19 16:53:00
11:53 AM,35.1,19.9,54,30.13,10.0,SSE,16.1,-,N/A,,Clear,150,2013-02-19 18:53:00
12:53 PM,42.1,18.0,38,30.07,10.0,SE,17.3,26.5,N/A,,Clear,140,2013-02-19 19:53:00
1:53 PM,41.0,18.0,40,30.04,10.0,SE,17.3,-,N/A,,Clear,140,2013-02-19 20:53:00
2:53 PM,41.0,17.1,38,30.04,10.0,SSE,17.3,-,N/A,,Clear,160,2013-02-19 21:53:00
3:53 PM,41.0,18.0,40,30.03,10.0,SE,20.7,27.6,N/A,,Clear,130,2013-02-19 22:53:00
5:53 PM,35.1,17.1,48,30.04,10.0,ESE,21.9,-,N/A,,Clear,120,2013-02-20 00:53:00
6:53 PM,30.9,16.0,54,30.07,10.0,ESE,19.6,-,N/A,,Clear,120,2013-02-20 01:53:00
7:53 PM,28.9,17.1,61,30.06,10.0,ESE,19.6,-,N/A,,Clear,120,2013-02-20 02:53:00
8:53 PM,27.0,17.1,66,30.06,10.0,ESE,18.4,-,N/A,,Clear,120,2013-02-20 03:53:00
9:53 PM,26.1,17.1,69,30.04,10.0,ESE,20.7,-,N/A,,Clear,120,2013-02-20 04:53:00
10:53 PM,24.1,15.1,69,30.03,10.0,ESE,19.6,-,N/A,,Clear,120,2013-02-20 05:53:00
11:53 PM,21.9,14.0,72,30.01,10.0,ESE,19.6,-,N/A,,Clear,120,2013-02-20 06:53:00